When you browse on this site, cookies collect data to enhance your experience and personalize the content and advertising you see.
Visit our Privacy Policy to learn more. By continuing to use the site, you agree to this use of cookies and data.
  • In Hungary
  • List of Countries
  • For 7 days
  • Water Temperature
  • Satellite Maps
  • Weather Map
  • News
  • Weather Widgets
  • user-avatar
    Login

    Hourly Weather Ischino

    Today, 24 January, Thursday

    Time Temperature Precipitation Wind Pressure Humidity
    00:00 -17°C° 0 mm 2 mps 742 mmHg 97%
    01:00 -17°C° 0 mm 2 mps 742 mmHg 97%
    02:00 -18°C° 0 mm 2 mps 742 mmHg 98%
    03:00 -19°C° 0 mm 2 mps 742 mmHg 98%
    04:00 -19°C° 0 mm 2 mps 741 mmHg 98%
    05:00 -19°C° 0 mm 2 mps 741 mmHg 98%
    06:00 -20°C° 0 mm 2 mps 741 mmHg 98%
    07:00 -20°C° 0 mm 2 mps 741 mmHg 98%
    08:00 -20°C° 0 mm 2 mps 741 mmHg 98%
    09:00 -19°C° 0 mm 2 mps 741 mmHg 96%
    10:00 -17°C° 0 mm 2 mps 741 mmHg 94%
    11:00 -15°C° 0 mm 2 mps 741 mmHg 92%
    12:00 -14°C° 0 mm 2 mps 741 mmHg 92%
    13:00 -13°C° 0 mm 2 mps 741 mmHg 92%
    14:00 -13°C° 0 mm 3 mps 741 mmHg 92%
    15:00 -13°C° 0 mm 2 mps 741 mmHg 93%
    16:00 -13°C° 0 mm 2 mps 742 mmHg 94%
    17:00 -14°C° 0 mm 2 mps 742 mmHg 95%
    18:00 -14°C° 0 mm 2 mps 742 mmHg 95%
    19:00 -14°C° 0 mm 2 mps 743 mmHg 95%
    20:00 -15°C° 0 mm 2 mps 743 mmHg 94%
    21:00 -16°C° 0 mm 2 mps 744 mmHg 95%
    22:00 -17°C° 0 mm 2 mps 745 mmHg 96%
    23:00 -18°C° 0 mm 2 mps 745 mmHg 97%

    Tomorrow, 25 January, Friday

    Time Temperature Precipitation Wind Pressure Humidity
    00:00 -17°C° 0 mm 1 mps 746 mmHg 98%
    01:00 -18°C° 0 mm 1 mps 746 mmHg 98%
    02:00 -19°C° 0 mm 1 mps 747 mmHg 98%
    03:00 -19°C° 0 mm 1 mps 747 mmHg 98%
    04:00 -19°C° 0 mm 1 mps 747 mmHg 97%
    05:00 -20°C° 0 mm 1 mps 747 mmHg 97%
    06:00 -20°C° 0 mm 1 mps 748 mmHg 96%
    07:00 -20°C° 0 mm 0 mps 748 mmHg 96%
    08:00 -21°C° 0 mm 0 mps 749 mmHg 95%
    09:00 -19°C° 0 mm 0 mps 749 mmHg 94%
    10:00 -17°C° 0 mm 0 mps 749 mmHg 92%
    11:00 -15°C° 0 mm 0 mps 749 mmHg 90%
    12:00 -15°C° 0 mm 0 mps 749 mmHg 90%
    13:00 -14°C° 0 mm 0 mps 750 mmHg 91%
    14:00 -14°C° 0 mm 0 mps 750 mmHg 91%
    15:00 -15°C° 0 mm 1 mps 749 mmHg 91%
    16:00 -16°C° 0 mm 1 mps 749 mmHg 91%
    17:00 -17°C° 0 mm 1 mps 749 mmHg 91%
    18:00 -17°C° 0 mm 1 mps 749 mmHg 91%
    19:00 -17°C° 0 mm 1 mps 749 mmHg 91%
    20:00 -19°C° 0 mm 2 mps 749 mmHg 91%
    21:00 -19°C° 0 mm 2 mps 749 mmHg 91%
    22:00 -19°C° 0 mm 2 mps 748 mmHg 91%
    23:00 -18°C° 0 mm 2 mps 748 mmHg 91%

    Day after tomorrow, 26 January, Saturday

    Time Temperature Precipitation Wind Pressure Humidity
    00:00 -18°C° 0 mm 2 mps 748 mmHg 91%
    01:00 -18°C° 0 mm 2 mps 747 mmHg 91%
    02:00 -18°C° 0 mm 2 mps 747 mmHg 90%
    03:00 -18°C° 0 mm 2 mps 746 mmHg 90%
    04:00 -19°C° 0 mm 3 mps 745 mmHg 89%
    05:00 -19°C° 0 mm 3 mps 744 mmHg 89%
    06:00 -18°C° 0 mm 3 mps 743 mmHg 88%
    07:00 -19°C° 0 mm 4 mps 743 mmHg 88%
    08:00 -19°C° 0 mm 4 mps 742 mmHg 87%
    09:00 -19°C° 0.5 mm 4 mps 741 mmHg 90%
    10:00 -19°C° 0.5 mm 4 mps 740 mmHg 92%
    11:00 -18°C° 0.5 mm 4 mps 739 mmHg 95%
    12:00 -18°C° 0.3 mm 4 mps 738 mmHg 95%
    13:00 -18°C° 0.3 mm 4 mps 738 mmHg 95%
    14:00 -16°C° 0.3 mm 3 mps 737 mmHg 94%
    15:00 -16°C° 0.4 mm 3 mps 736 mmHg 95%
    16:00 -16°C° 0.4 mm 3 mps 735 mmHg 95%
    17:00 -15°C° 0.4 mm 3 mps 735 mmHg 95%
    18:00 -15°C° 0.3 mm 3 mps 734 mmHg 95%
    19:00 -14°C° 0.3 mm 2 mps 733 mmHg 96%
    20:00 -13°C° 0.3 mm 2 mps 733 mmHg 96%
    21:00 -13°C° 0.4 mm 2 mps 732 mmHg 96%
    22:00 -11°C° 0.4 mm 1 mps 732 mmHg 97%
    23:00 -10°C° 0.4 mm 1 mps 732 mmHg 97%

    27 January, Sunday

    Time Temperature Precipitation Wind Pressure Humidity
    00:00 -11°C° 0.1 mm 1 mps 731 mmHg 97%
    01:00 -11°C° 0.1 mm 1 mps 731 mmHg 97%
    02:00 -12°C° 0.1 mm 1 mps 731 mmHg 97%
    03:00 -12°C° 0.1 mm 1 mps 730 mmHg 97%
    04:00 -12°C° 0.1 mm 1 mps 730 mmHg 97%
    05:00 -13°C° 0.1 mm 1 mps 730 mmHg 97%
    06:00 -13°C° 0.1 mm 1 mps 730 mmHg 97%
    07:00 -15°C° 0.1 mm 2 mps 730 mmHg 96%
    08:00 -16°C° 0.1 mm 2 mps 730 mmHg 96%
    09:00 -16°C° 0 mm 2 mps 730 mmHg 95%
    10:00 -15°C° 0 mm 2 mps 730 mmHg 95%
    11:00 -15°C° 0 mm 2 mps 730 mmHg 94%
    12:00 -15°C° 0 mm 2 mps 730 mmHg 94%
    13:00 -16°C° 0 mm 3 mps 730 mmHg 93%
    14:00 -16°C° 0 mm 3 mps 730 mmHg 93%
    15:00 -17°C° 0 mm 3 mps 731 mmHg 93%
    16:00 -18°C° 0 mm 3 mps 731 mmHg 94%
    17:00 -19°C° 0 mm 3 mps 731 mmHg 94%
    18:00 -21°C° 0 mm 3 mps 731 mmHg 94%
    19:00 -21°C° 0 mm 3 mps 732 mmHg 95%
    20:00 -22°C° 0 mm 3 mps 732 mmHg 95%
    21:00 -22°C° 0 mm 3 mps 732 mmHg 95%
    22:00 -22°C° 0 mm 3 mps 732 mmHg 95%
    23:00 -22°C° 0 mm 3 mps 733 mmHg 95%

    28 January, Monday

    Time Temperature Precipitation Wind Pressure Humidity
    00:00 -22°C° 0 mm 3 mps 733 mmHg 95%
    01:00 -22°C° 0 mm 3 mps 734 mmHg 96%
    02:00 -22°C° 0 mm 3 mps 734 mmHg 96%
    03:00 -22°C° 0 mm 3 mps 734 mmHg 96%
    04:00 -20°C° 0 mm 2 mps 735 mmHg 96%
    05:00 -20°C° 0 mm 2 mps 735 mmHg 97%
    06:00 -20°C° 0 mm 2 mps 735 mmHg 97%
    07:00 -20°C° 0 mm 2 mps 736 mmHg 97%
    08:00 -17°C° 0 mm 1 mps 736 mmHg 97%
    09:00 -16°C° 0 mm 1 mps 736 mmHg 96%
    10:00 -15°C° 0 mm 1 mps 737 mmHg 95%
    11:00 -14°C° 0 mm 1 mps 737 mmHg 94%
    12:00 -13°C° 0 mm 1 mps 737 mmHg 94%
    13:00 -13°C° 0 mm 1 mps 737 mmHg 94%
    14:00 -12°C° 0 mm 1 mps 737 mmHg 94%
    15:00 -14°C° 0 mm 1 mps 737 mmHg 95%
    16:00 -15°C° 0 mm 1 mps 737 mmHg 96%
    17:00 -19°C° 0 mm 2 mps 737 mmHg 97%
    18:00 -18°C° 0 mm 2 mps 737 mmHg 95%
    19:00 -18°C° 0 mm 2 mps 737 mmHg 94%
    20:00 -17°C° 0 mm 2 mps 736 mmHg 92%
    21:00 -17°C° 0.2 mm 3 mps 736 mmHg 93%
    22:00 -16°C° 0.2 mm 3 mps 736 mmHg 94%
    23:00 -15°C° 0.2 mm 3 mps 736 mmHg 95%

    29 January, Tuesday

    Time Temperature Precipitation Wind Pressure Humidity
    00:00 -14°C° 0.1 mm 3 mps 736 mmHg 94%
    01:00 -14°C° 0.1 mm 3 mps 736 mmHg 94%
    02:00 -13°C° 0.1 mm 3 mps 736 mmHg 94%
    03:00 -12°C° 0 mm 3 mps 735 mmHg 94%
    04:00 -12°C° 0 mm 3 mps 735 mmHg 94%
    05:00 -10°C° 0 mm 3 mps 735 mmHg 94%
    06:00 -9°C° 0 mm 3 mps 735 mmHg 94%
    07:00 -9°C° 0 mm 3 mps 735 mmHg 94%
    08:00 -8°C° 0 mm 3 mps 735 mmHg 94%
    09:00 -7°C° 0 mm 3 mps 735 mmHg 94%
    10:00 -5°C° 0 mm 4 mps 735 mmHg 93%
    11:00 -4°C° 0 mm 4 mps 735 mmHg 93%
    12:00 -3°C° 0.1 mm 4 mps 735 mmHg 92%
    13:00 -3°C° 0.1 mm 4 mps 735 mmHg 92%
    14:00 -2°C° 0.1 mm 4 mps 736 mmHg 91%
    15:00 -2°C° 0.1 mm 4 mps 736 mmHg 92%
    16:00 -2°C° 0.1 mm 4 mps 736 mmHg 92%
    17:00 -2°C° 0.1 mm 4 mps 736 mmHg 92%
    18:00 -2°C° 0 mm 4 mps 736 mmHg 93%
    19:00 -2°C° 0 mm 4 mps 736 mmHg 93%
    20:00 -3°C° 0 mm 4 mps 736 mmHg 93%
    21:00 -3°C° 0 mm 4 mps 736 mmHg 94%
    22:00 -3°C° 0 mm 4 mps 736 mmHg 94%
    23:00 -3°C° 0 mm 4 mps 736 mmHg 94%
    Show more